Regional Weather Roundup
Issued by NWS

Home | Current Version | Previous Version | Text Only | Print | Product List | Glossary Off
Versions: 1 2 3 4 5 6 7 8 9 10 11 12 13 14 15 16 17 18 19 20 21 22 23 24 25 26 27 28 29 30 31 32 33 34 35 36 37 38 39 40 41 42 43 44 45 46 47 48 49 50

000
ASUS43 KMKX 310221
RWRWI

WISCONSIN REGIONAL WEATHER ROUNDUP
NATIONAL WEATHER SERVICE MILWAUKEE/SULLIVAN WI
900 PM CDT SUN AUG 30 2015

NOTE: "FAIR" INDICATES FEW OR NO CLOUDS BELOW 12,000 FEET WITH NO
SIGNIFICANT WEATHER AND/OR OBSTRUCTIONS TO VISIBILITY.

WIZ001-002-006>008-014>016-023>028-310300-
NORTHWEST WISCONSIN

CITY           SKY/WX    TMP DP  RH WIND       PRES   REMARKS
SUPERIOR ARPT  PTCLDY    67  64  88 SW5       29.87S
ASHLAND        CLEAR     67  64  90 S6        29.90R
HAYWARD        CLEAR     67  63  87 S6        29.94R
SIREN          CLEAR     70  64  81 S6        29.93R
CUMBERLAND     CLEAR     64  63  94 S5        29.96R
RICE LAKE      CLEAR     65  62  89 SE5       29.97S
CHETEK         CLEAR    N/A N/A N/A SE5       29.96S
LADYSMITH      CLEAR     66  64  91 S5        29.99S
EAU CLAIRE     CLEAR     68  63  84 S7        29.97R
MENOMONIE      CLEAR     65  63  92 SE3       29.97R
NEW RICHMOND   CLEAR     68  65  92 S6        29.95R
OSCEOLA        CLEAR     68  68 100 SE5       29.96R
$$

WIZ003>005-009-010-017-018-310300-
NORTH CENTRAL WISCONSIN

CITY           SKY/WX    TMP DP  RH WIND       PRES   REMARKS
MANITOWISH WTR CLEAR     65  65  97 S5        29.97R
ARBOR VITAE    CLEAR     67  64  91 S7        29.98S
WOODRUFF       CLEAR     67  64  91 S7        29.98S
RHINELANDER    CLEAR     67  62  84 SW6       30.00R
EAGLE RIVER    CLEAR     67  60  80 SW3       29.97R
LAND O LAKES   CLEAR     68  63  83 SW5       29.98R
PHILLIPS       CLEAR     66  63  91 SW5       29.98R
TOMAHAWK       CLEAR     63  61  94 CALM      30.00R
MEDFORD        CLEAR     64  63  94 S7        30.00R
MERRILL        CLEAR     63  62  95 CALM      30.00S
$$

WIZ029-030-035-036-043>047-310300-
CENTRAL WISCONSIN

CITY           SKY/WX    TMP DP  RH WIND       PRES   REMARKS
WAUSAU         CLEAR     68  64  87 SW7       29.98R
MOSINEE        NOT AVBL
MARSHFIELD     CLEAR     66  61  84 SW3       30.01R
STEVENS POINT  CLEAR     65  63  90 SW6       30.01R
WAUPACA        CLEAR     67  66  96 S3        30.00R
WAUTOMA        CLEAR     65  65 100 CALM      30.01R
WISC RAPIDS    CLEAR     65  62  90 SW3       30.02R
CAMP DOUGLAS   FOG       59  59 100 SE1       30.01R VSB 1/2
$$

WIZ011>013-019>022-031-037>040-048>050-310300-
NORTHEAST WISCONSIN

CITY           SKY/WX    TMP DP  RH WIND       PRES   REMARKS
ANTIGO         CLEAR     63  62  96 SW6       30.00S
SHAWANO        CLEAR     68  64  88 CALM      29.98S
OCONTO         CLEAR     66  66 100 S3        29.97R
STURGEON BAY   CLEAR     63  57  82 S6        30.00S
GREEN BAY      CLEAR     67  63  87 S6        29.99R
MANITOWOC      CLEAR     61  59  93 MISG      30.02R
APPLETON       CLEAR     64  63  94 S6        29.99R
CLINTONVILLE   CLEAR     64  63  94 SW5       29.99R
OSHKOSH        CLEAR     63  61  93 S6        30.00S
$$

WIZ032>034-041-042-053>061-310300-
SOUTHWEST WISCONSIN

CITY           SKY/WX    TMP DP  RH WIND       PRES   REMARKS
LA CROSSE      CLEAR     68  64  87 S3        29.98S
SPARTA         CLEAR     64  62  93 CALM      30.01R
VIROQUA          N/A     65  65 100 S3        30.02S
BOSCOBEL       FOG       64  63  96 CALM      30.01R VSB 1/2
PRAIRIE DU CHI CLEAR     65  63  92 CALM      30.00S
PLATTEVILLE    CLEAR     66  64  95 CALM      30.02S
$$

WIZ056-057-062-063-064-067-068-310300-
SOUTH CENTRAL WISCONSIN

CITY           SKY/WX    TMP DP  RH WIND       PRES   REMARKS
REEDSBURG      CLEAR     66  64  95 CALM      30.01R
BARABOO/DELLS  CLEAR     65  63  91 CALM      30.01R
LONE ROCK      CLEAR     64  62  93 CALM      30.01S
MINERAL POINT  CLEAR     68  64  88 SW3       30.03S
MADISON        MOCLDY    65  63  93 CALM      30.01R
MIDDLETON      CLEAR     64  63  97 CALM      30.02S
WATERTOWN      CLEAR     63  63 100 CALM      30.02R
MONROE         CLEAR     66  63  88 S6        30.03R
JANESVILLE     CLEAR     66  64  94 CALM      30.03R
$$

WIZ051-052-058>065-066-070>072-310300-
SOUTHEAST WISCONSIN

CITY           SKY/WX    TMP DP  RH WIND       PRES   REMARKS
MILWAUKEE      CLEAR     64  61  90 S6        30.03R FOG
WAUKESHA       CLEAR     64  63  94 CALM      30.04R
MILWAUKEE/TIMM CLEAR     66  61  82 CALM      30.04R
RACINE         CLEAR     64  61  90 S6        30.06R FOG
BURLINGTON     CLEAR     61  60  97 SW3       30.04R
KENOSHA        CLEAR     64  62  93 S6        30.05R FOG
FOND DU LAC    CLEAR     63  62  97 S5        30.02R
SHEBOYGAN      CLEAR     61  60  97 S5        30.02R
WEST BEND      CLEAR     63  61  94 CALM      30.03R FOG
JUNEAU         CLEAR     64  62  93 SE3       30.04R
$$

LSZ147-162-310300-
LAKE SUPERIOR

STATION/POSITION TIME  TEMP    WIND        PRES    WAVE
                       AIR SEA DIR/SP/G            HT/PER
                 (UTC) (F)     (DEG/KT/KT) (MB)    (FT/S)
W MID LAKE BUOY  0150   62 55  200/  6/  6 1011.2R   1
DEVILS ISLAND    0200   73     200/ 10/ 12 1011.0R
PORT WING        0100   73     170/  3/  4 1011.5R
SAXON HARBOR     0140   74     200/  7/ 10 1011.5R
$$

LMZ867-665-643>646-310300-
LAKE MICHIGAN

STATION/POSITION TIME  TEMP    WIND        PRES    WAVE
                       AIR SEA DIR/SP/G            HT/PER
                 (UTC) (F)     (DEG/KT/KT) (MB)    (FT/S)
CHAMBERS ISLAND  0100   68     180/  8/ 13 1014.2R
S GREEN BAY BUOY 0200   66 63  190/  8/ 10 1016.5R
N MID LAKE BUOY  0150   64 65  210/ 17/ 21 1014.2R   2/ 4
NORTHPORT PIER   0200   63     150/  4/  7 1014.6R
SHEBOYGAN LAKESH 0200   62     190/  9/  9 1017.0R
PORT WASHINGTON  0100   59     200/  4/  5 1016.9S
ATWATER BUOY     0200   57 50  160/  8/  8 1018.3R
MILWAUKEE LAKESH 0200   60     170/  2/  2   N/A
S MID LAKE BUOY  0150   67 68  150/  4/  4 1017.0R   0
KENOSHA   LAKESH 0200   66     190/  5/  9 1017.3R
$$

TC  - TEMPERATURE IN CELSIUS
VSB - VISIBILITY IN STATUTE MILES
WCI - WIND CHILL INDEX
HX  - HEAT INDEX




USA.gov is the U.S. government's official web portal to all federal, state and local government web resources and services.